PRÉPARATION DES VOLS

Pour bien préparer vos sorties, pensez à télécharger la fiche technique de votre avion, la check-list, le manuel de vol, le devis de centrage ou encore un modèle de Log de Nav.

 

Type : 2 places train classique

Moteur : Continental 90 cv.

Performances : 140 km/h

Type : 3/4 places instruction, entraînement, voyage.

Moteur : Lycoming 4 cyl. à plat, 120 cv.

Performances : 190 km/h

Autonomie : 4 h soit environ 760 km franchissables.

Avionique : 1 radio com Bendix/King, 1 VOR, 1 transpondeur mode S, intercom 2 voies type.

 

Type : 3/4 places instruction, entraînement, voyage.

Moteur : Lycoming 4 cyl. à plat, 120 cv.

Performances : 190 km/h

Autonomie : 4 h soit environ 760 km franchissables.

Avionique : 1 radio com Bendix/King, 1 VOR, 1 transpondeur mode S, intercom 2 voies type.

 

Type : 4 places, pour entraînement et voyage.

Moteur : Robin Lycoming 4 cyl. à plat, 160 cv.

Performances : 206 km/h

Autonomie : 2 h 50 min soit environ 580 km de distance franchissable.

Avionique : 1 radio com Bendix/King, 1 VOR, 1 transpondeur mode S, intercom 4 voies.

 

 

 

 

 

 

 

Type : 4 places, avion de voyage

Moteur : Lycoming 4 cylindres à plat, 180CV

Vitesse de croisière : 225 km/h

Autonomie : 4h

Avionique : Garmin GNS 430, 1 VOR, 1 transpondeur mode S

 

Automne 2023…

Télécharger les consignes locales de l’aérodrome de Chavenay

Télécharger l’aide mémoire de la radio GTR 225A

Télécharger l’aide mémoire de la radio GNC 255A

Télécharger le dossier de préparation de vol

Télécharger un log de nav

Log 1

Cliquez sur le formulaire pour le télécharger

*Notice d’utilisation*

Ce log de Nav permet d’avoir une partie Navigation et une partie déroutement. Il comprends également une gestion du carburant.
Il tient aussi bien sur une planchette A4 ou A5 en pliant la feuille en deux et en découpant la partie pointillé. A la suite, il suffit de plier chaque bords découpés.
Les parties Nav/Déroutement peuvent ainsi être disponible en rabattant la feuille.
Bons vols à tous !
Guillaume

Log 2

Cliquez sur le formulaire pour le télécharger

Log_1*Notice d’utilisation*

Ce Log de Nav a été optimisé pour rendre les calculs automatiques sous Excel. Indiquez simplement vos points de report, les altitudes et les distances en NM. La feuille calcule alors le temps sans vent pour chaque étape et donne le total, qu’elle convertit en heure-minutes. Elle calcule également la distance totale et la convertit en kilomètres. Enfin, elle affiche le résultat du devis carburant, calculé automatiquement par le 2ème feuillet. Vous pouvez également inscrire préalablement les fréquences Radio et Nav. Les autres cases sont à remplir pendant le vol : date, top départ, heure estimée (grisée), heure réelle,horamètre, Atis…
Bons vols à tous !
Guillaume

Log 3

Cliquez sur le formulaire pour le télécharger

Log_2

Log 4

 Cliquez sur le formulaire pour le télécharger

Log_3

L’alphabet Morse et l’alphabet international

Alphabet International

Nos coordonnées

Aéroclub Renault

Aérodrome de Chavenay

78450 Chavenay-Villepreux

telephone

Atis

Télécharger la VAC LFPX

Télécharger le calcul de centrage

Télécharger la feuille ATIS

Télécharger le mémo VFR 2020-2021

 

Télécharger le formulaire de prorogation SEP

METARS / TAF de Toussus, Evreux, Orly et Roissy

Toussus

LFPN 231730Z AUTO 14004KT 060V220 9999 ///TCU 17/11 Q1016 TEMPO 4000 SHRA BECMG NSC

TAF TAF AMD LFPN 132015Z 1320/1420 17005KT 5000 BKN025 TEMPO 1320/1324 2000 BR OVC008 PROB30 TEMPO 1320/1324 0800 FG OVC002

Evreux

LFOE 231830Z AUTO 30008KT 9999 ///CB 17/10 Q1016 TEMPO 4000 SHRA

TAF TAF LFOE 231400Z 2315/2415 28008KT 9999 BKN040 TEMPO 2315/2321 4000 SHRA BKN030CB PROB40 TEMPO 2315/2318 VRB15G25KT 2000 TSRA BECMG 2321/2322 31005KT TEMPO 2412/2415 3000 BKN030CB PROB40 TEMPO 2412/2415 2000 TSRA

Orly

LFPO 231830Z AUTO 17003KT 140V200 CAVOK 15/13 Q1016 TEMPO 4000 SHRA BKN030TCU

TAF LFPO 231700Z 2318/2424 24005KT 9999 SCT040 PROB40 TEMPO 2318/2322 4000 SHRA BKN030TCU PROB40 2404/2407 4000 BR BKN005 TEMPO 2410/2420 4000 SHRA BKN035TCU PROB40 2412/2418 VRB15G25KT 2000 -TSRA BKN030CB PROB30 TEMPO 2413/2417 -TSRAGS

Roissy

LFPG 231830Z VRB02KT 9999 VCSH FEW060TCU BKN076 16/09 Q1016 NOSIG

TAF AMD LFPG 231828Z 2318/2424 20008KT 9999 BKN040 TX19/2416Z TN13/2403Z PROB30 TEMPO 2318/2320 4000 SHRA BKN035TCU PROB30 TEMPO 2402/2404 3000 BR BKN002 TEMPO 2412/2418 4000 SHRA BKN035TCU PROB40 TEMPO 2412/2414 30010G20KT 1500 TSRAGR BKN020CB PROB40 TEMPO 2414/2418 2500 -TSRA BKN030CB

Share This